Fort Campbell, KY

7:26 AM CDT on October 17, 2017 (GMT -0500)
Campbell Army Air Field

Weather History for KHOP - October, 2012

Change the Weather History Date:

Sunday, October 7, 2012

  Actual Average Record
Temperature  
Mean Temperature 50 °F -  
Max Temperature 58 °F 72 °F 91 °F (1997)
Min Temperature 44 °F 50 °F 33 °F (2001)
Degree Days  
Heating Degree Days 15    
Moisture  
Dew Point 36 °F    
Average Humidity 64    
Maximum Humidity 79    
Minimum Humidity 41    
Precipitation  
Precipitation 0.00 in - - ()
Sea Level Pressure  
Sea Level Pressure 30.20 in    
Wind  
Wind Speed 2 mph (NW)    
Max Wind Speed 8 mph    
Max Gust Speed -    
Visibility 10 miles    
Events      
Averages and records for this station are not official NWS values.
T = Trace of Precipitation, MM = Missing Value Source: NWS Daily Summary

Daily Weather History Graph

Daily Weather History Graph

Search for Another Location

Airport or City:

Trip Planner

Search our weather history database for the weather conditions in past years. The results will help you decide how hot, cold, wet, or windy it might be!

Date:

Astronomy

Oct. 07, 2012 Rise Set
Actual Time 6:50 AM CDT 6:23 PM CDT
Civil Twilight 6:24 AM CDT 6:49 PM CDT
Nautical Twilight 5:54 AM CDT 7:19 PM CDT
Astronomical Twilight 5:24 AM CDT 7:49 PM CDT
Moon 11:41 PM CDT (10/7) 1:21 PM CDT (10/7)
Length of Visible Light 12h 24m
Length of Day
11h 33m
Waning Gibbous, 56% of the Moon is Illuminated
Oct 7
Waning Gibbous
Oct 8
Last Quarter
Oct 15
New
Oct 21
First Quarter
Oct 29
Full

Hourly Weather History & Observations

Time (CDT) Temp. Windchill Dew Point Humidity Pressure Visibility Wind Dir Wind Speed Gust Speed Precip Events Conditions
12:55 AM 47.3 °F - 37.2 °F 68% 30.18 in 10.0 mi Calm Calm - N/A   Overcast
1:55 AM 46.9 °F - 37.2 °F 69% 30.19 in 10.0 mi Variable 3.5 mph - N/A   Overcast
2:55 AM 46.4 °F - 37.6 °F 71% 30.18 in 10.0 mi Calm Calm - N/A   Overcast
3:01 AM 46.4 °F 45.2 °F 37.4 °F 71% 30.17 in 10.0 mi Variable 3.5 mph - N/A   Light Drizzle
3:11 AM 46.4 °F 45.2 °F 37.4 °F 71% 30.17 in 10.0 mi Variable 3.5 mph - N/A   Mostly Cloudy
3:27 AM 46.4 °F 45.2 °F 37.4 °F 71% 30.17 in 10.0 mi Variable 3.5 mph - N/A   Light Drizzle
3:39 AM 44.6 °F - 37.4 °F 76% 30.17 in 10.0 mi Calm Calm - N/A   Scattered Clouds
3:55 AM 45.0 °F 43.5 °F 38.3 °F 77% 30.17 in 10.0 mi Variable 3.5 mph - 0.00 in   Mostly Cloudy
4:55 AM 45.0 °F - 37.8 °F 76% 30.18 in 10.0 mi Calm Calm - N/A   Overcast
5:55 AM 44.6 °F - 37.9 °F 77% 30.20 in 10.0 mi Calm Calm - N/A   Overcast
6:55 AM 44.4 °F - 37.8 °F 77% 30.21 in 10.0 mi Calm Calm - N/A   Overcast
7:55 AM 44.8 °F 42.4 °F 38.1 °F 77% 30.23 in 10.0 mi NW 4.6 mph - N/A   Overcast
8:55 AM 44.8 °F 43.3 °F 36.9 °F 74% 30.25 in 10.0 mi Variable 3.5 mph - N/A   Overcast
9:55 AM 48.6 °F - 36.9 °F 64% 30.24 in 10.0 mi Variable 4.6 mph - N/A   Partly Cloudy
10:55 AM 50.7 °F - 35.4 °F 56% 30.24 in 10.0 mi Variable 5.8 mph - N/A   Clear
11:55 AM 53.1 °F - 35.2 °F 51% 30.23 in 10.0 mi NW 6.9 mph - N/A   Clear
12:55 PM 55.6 °F - 32.5 °F 42% 30.22 in 10.0 mi West 8.1 mph - N/A   Clear
1:55 PM 56.5 °F - 33.1 °F 41% 30.20 in 10.0 mi Variable 5.8 mph - N/A   Clear
2:55 PM 56.1 °F - 34.2 °F 44% 30.18 in 10.0 mi Variable 3.5 mph - N/A   Clear
3:55 PM 56.5 °F - 33.6 °F 42% 30.18 in 10.0 mi Calm Calm - N/A   Clear
4:55 PM 56.7 °F - 33.8 °F 42% 30.18 in 10.0 mi Variable 3.5 mph - N/A   Clear
5:55 PM 54.0 °F - 34.3 °F 47% 30.18 in 10.0 mi Calm Calm - N/A   Clear
6:55 PM 51.1 °F - 35.1 °F 54% 30.19 in 10.0 mi Variable 3.5 mph - N/A   Clear
7:55 PM 49.5 °F - 35.8 °F 59% 30.19 in 10.0 mi NNE 3.5 mph - N/A   Clear
8:55 PM 48.6 °F - 36.1 °F 62% 30.19 in 10.0 mi Variable 3.5 mph - N/A   Scattered Clouds
9:55 PM 47.1 °F - 35.6 °F 64% 30.19 in 10.0 mi Variable 4.6 mph - N/A   Mostly Cloudy
10:55 PM 44.1 °F - 37.8 °F 78% 30.20 in 10.0 mi Calm Calm - N/A   Mostly Cloudy
11:55 PM 45.3 °F - 39.0 °F 79% 30.20 in 10.0 mi Calm Calm - N/A   Mostly Cloudy